Weather History for Buffalo, WY

Change the Weather History Date:

Saturday, January 5, 2013

  Actual Average Record
Temperature  
Mean Temperature 28 °F 27 °F  
Max Temperature 36 °F 39 °F 63 °F (2012)
Min Temperature 19 °F 16 °F -18 °F (2004)
Degree Days  
Heating Degree Days 37 38  
Month to date heating degree days 198 190  
Since 1 July heating degree days 2923 3237  
Cooling Degree Days 0 0  
Month to date cooling degree days 0 0  
Year to date cooling degree days 0 0  
Moisture  
Dew Point 13 °F    
Average Humidity 55    
Maximum Humidity 68    
Minimum Humidity 41    
Precipitation  
Precipitation 0.00 in 0.01 in 0.46 in (1968)
Month to date precipitation T 0.05  
Year to date precipitation T 0.05  
Sea Level Pressure  
Sea Level Pressure 30.25 in    
Wind  
Wind Speed 8 mph (WSW)    
Max Wind Speed 21 mph    
Max Gust Speed 26 mph    
Visibility 10 miles    
Events      
T = Trace of Precipitation, MM = Missing Value Source: NWS Daily Summary

Daily Weather History Graph

Daily Weather History Graph

Search for Another Location

Airport:

Trip Planner

Search our weather history database for the weather conditions in past years. The results will help you decide how hot, cold, wet, or windy it might be!

Date:

Astronomy

Jan. 05, 2013 Rise Set
Actual Time 7:42 AM MST 4:42 PM MST
Civil Twilight 7:09 AM MST 5:15 PM MST
Nautical Twilight 6:33 AM MST 5:51 PM MST
Astronomical Twilight 5:58 AM MST 6:27 PM MST
Moon 12:44 AM MST (1/5) 11:40 AM MST (1/5)
Length of Visible Light 10h 05m
Length of Day
8h 59m
Last Quarter, 43% of the Moon is Illuminated
Jan 5
Last Quarter
Jan 11
New
Jan 18
First Quarter
Jan 26
Full
Feb 3
Last Quarter

Hourly Weather History & Observations

Time (MST) Temp. Windchill Dew Point Humidity Pressure Visibility Wind Dir Wind Speed Gust Speed Precip Events Conditions
12:53 AM 25.0 °F 15.5 °F 8.1 °F 49% 30.14 in 10.0 mi WNW 9.2 mph - N/A   Clear
1:53 AM 25.0 °F 18.1 °F 8.1 °F 49% 30.16 in 10.0 mi WNW 5.8 mph - N/A   Clear
3:53 AM 34.0 °F 22.7 °F 12.0 °F 40% 30.15 in 10.0 mi NW 19.6 mph - N/A   Clear
4:53 AM 28.0 °F 21.7 °F 10.0 °F 47% 30.19 in 10.0 mi North 5.8 mph - N/A   Clear
5:53 AM 28.9 °F 18.2 °F 12.0 °F 49% 30.21 in 10.0 mi NNW 13.8 mph 20.7 mph N/A   Clear
6:53 AM 28.0 °F 20.0 °F 15.1 °F 58% 30.26 in 10.0 mi NNW 8.1 mph - N/A   Clear
7:53 AM 25.0 °F 19.3 °F 12.9 °F 60% 30.28 in 10.0 mi Variable 4.6 mph - N/A   Clear
8:53 AM 26.1 °F - 16.0 °F 66% 30.28 in 10.0 mi Calm Calm - N/A   Clear
9:53 AM 30.9 °F 20.7 °F 18.0 °F 59% 30.29 in 10.0 mi North 13.8 mph 25.3 mph N/A   Clear
10:53 AM 33.1 °F 21.9 °F 19.9 °F 59% 30.29 in 10.0 mi North 18.4 mph 24.2 mph N/A   Clear
11:53 AM 34.0 °F 27.2 °F 19.9 °F 56% 30.28 in 10.0 mi West 8.1 mph - N/A   Clear
12:53 PM 34.0 °F 28.8 °F 19.0 °F 54% 30.28 in 10.0 mi West 5.8 mph - N/A   Clear
1:53 PM 34.0 °F 26.6 °F 16.0 °F 48% 30.25 in 10.0 mi South 9.2 mph - N/A   Clear
2:53 PM 34.0 °F 26.6 °F 15.1 °F 46% 30.24 in 10.0 mi South 9.2 mph - N/A   Clear
3:53 PM 28.9 °F 21.9 °F 14.0 °F 54% 30.25 in 10.0 mi SE 6.9 mph - N/A   Clear
4:53 PM 21.0 °F 14.6 °F 12.0 °F 68% 30.31 in 10.0 mi West 4.6 mph - N/A   Clear
5:53 PM 21.0 °F 11.4 °F 10.9 °F 65% 30.31 in 10.0 mi WSW 8.1 mph - N/A   Clear
6:53 PM 23.0 °F 17.0 °F 10.0 °F 58% 30.30 in 10.0 mi SW 4.6 mph - N/A   Clear
7:53 PM 23.0 °F 13.9 °F 10.0 °F 58% 30.30 in 10.0 mi SW 8.1 mph - N/A   Clear
8:53 PM 26.1 °F 19.4 °F 9.0 °F 49% 30.27 in 10.0 mi South 5.8 mph - N/A   Clear
9:53 PM 26.1 °F 17.6 °F 9.0 °F 49% 30.24 in 10.0 mi South 8.1 mph - N/A   Clear
10:53 PM 24.1 °F 16.0 °F 9.0 °F 53% 30.21 in 10.0 mi South 6.9 mph - N/A   Clear
11:53 PM 23.0 °F 17.0 °F 9.0 °F 55% 30.18 in 10.0 mi SE 4.6 mph - N/A   Clear